Vertical_Velocity
-3 1 5 7 2 1 2 5 6 5 5 3 0 -2 -4 -3 -1 -0 0 0 1 2 3 4 5 5 4 2 2 2 1 1 0 -0 -1 -0 -0 0 0 0 0 -0 -1 -1 -1 -1 -1 -1 -1 -0 -0 0 -0 -0 -1 -1 -1 -0 0 0 -0 -0 -0 -0 -0 -0 -0 -0 -0
3 4 4 0 -1 -0 2 4 5 5 6 5 1 -1 -2 -1 -0 0 0 -0 1 3 4 5 5 4 3 2 2 1 1 0 0 -0 -1 -1 -0 -0 0 0 -0 -0 -1 -1 -1 -1 -0 -0 0 0 0 0 -0 -1 -1 -0 0 0 0 -0 -0 -1 -1 -0 0 0 0 0 -0
6 3 -2 -8 -4 0 3 4 4 4 4 2 1 1 1 2 2 2 2 2 4 5 5 5 4 3 2 2 1 1 1 1 0 -0 -1 -1 -1 -0 -0 -0 -0 -0 -1 -1 -0 0 1 1 1 1 1 0 -1 -1 -0 0 1 0 0 -0 -1 -1 -1 -0 0 0 0 0 0
3 -3 -8 -7 -1 3 5 4 5 3 1 -1 -0 1 2 3 4 4 4 5 5 5 4 4 3 2 1 1 1 0 0 1 0 -0 -1 -1 -1 -0 -0 -0 -0 -0 -0 -0 0 1 1 1 1 1 0 -1 -1 -1 -0 1 1 0 -0 -0 -1 -1 -0 -0 0 0 0 0 0
-2 -6 -5 0 6 8 8 7 5 3 1 1 0 1 2 4 4 4 5 5 4 3 4 4 3 2 1 1 1 0 -0 -1 -1 -1 -1 -0 -0 -0 -0 -0 -0 0 0 1 1 1 1 1 1 0 -1 -1 -1 -0 0 0 0 -0 -0 -0 -1 -0 -0 0 0 0 -0 -0 -0
-4 -2 3 8 8 10 11 11 7 5 3 2 2 2 3 4 4 4 4 3 3 3 4 3 3 2 1 1 0 -0 -1 -2 -2 -2 -1 -0 0 -0 -0 -0 0 1 1 1 1 1 1 1 -0 -1 -1 -1 -0 0 1 0 -0 -0 -0 -1 -1 -0 -0 -0 -0 -0 -0 -1 -0
-3 1 5 8 8 11 13 12 9 7 4 2 4 5 5 5 4 3 3 2 3 3 3 2 2 2 1 0 -1 -1 -2 -2 -2 -1 -0 0 0 0 -0 0 0 1 1 1 1 1 0 -0 -1 -1 -1 -0 1 1 1 0 -0 -0 -1 -1 -1 -1 -0 -0 -0 -1 -1 -1 -1
1 3 5 6 9 12 13 11 9 6 3 1 5 6 6 5 4 3 2 2 3 3 2 1 1 2 1 0 -0 -1 -1 -1 -1 -0 -0 0 0 0 0 1 1 0 0 0 0 0 -0 -1 -1 -1 -0 1 1 1 0 -0 -0 -0 -1 -1 -1 -1 -0 -0 -0 -1 -1 -1 -1
4 7 8 8 9 10 11 10 7 4 1 1 4 6 6 4 3 2 2 2 3 3 2 2 2 2 2 1 1 0 0 0 0 0 -0 -0 0 0 1 1 1 0 -0 -0 -0 -1 -1 -1 -0 0 1 1 0 0 -0 -1 -1 -1 -1 -1 -1 -0 -0 -0 -0 -1 -1 -1 -1
5 8 10 10 8 8 9 8 6 5 5 5 3 4 5 4 3 3 3 3 3 3 3 3 2 2 1 1 1 1 1 1 1 1 0 -0 1 1 1 1 1 0 -0 -1 -1 -1 -1 -0 0 1 1 1 -0 -1 -1 -1 -1 -1 -1 -1 -0 -0 -0 -0 -1 -1 -1 -1 -1
7 8 9 9 7 5 5 6 7 10 11 6 1 2 4 4 3 3 3 4 4 3 3 3 2 2 1 1 1 1 1 1 1 1 1 1 1 2 2 1 1 0 -1 -1 -1 -1 -1 -0 1 1 1 0 -1 -1 -1 -1 -1 -1 -1 -0 -0 -0 -0 -1 -1 -1 -1 -1 -0
9 8 7 7 6 4 3 5 10 13 11 1 -1 1 3 2 2 3 4 4 3 3 3 3 2 2 2 1 1 1 1 1 1 1 1 2 2 1 1 1 0 -1 -1 -2 -1 -1 -1 -0 0 0 0 -0 -1 -1 -1 -1 -1 -1 -1 -0 -1 -1 -1 -1 -1 -1 -1 -0 -0
10 9 7 8 8 6 4 4 9 8 4 -2 -0 1 2 2 3 4 4 3 3 3 2 2 2 2 2 1 1 1 1 1 1 2 2 2 1 1 0 -0 -1 -2 -2 -3 -2 -1 -1 -0 0 -0 -0 -1 -1 -1 -1 -1 -1 -1 -1 -1 -1 -1 -1 -1 -1 -1 -0 -0 -0
13 11 8 9 9 5 -0 -5 -1 0 1 0 2 2 2 3 4 4 4 3 2 2 1 1 1 1 1 1 0 0 1 1 1 2 2 2 1 0 -0 -1 -2 -3 -3 -3 -2 -1 -1 -0 -0 -0 -0 -1 -1 -1 -1 -1 -1 -1 -1 -1 -1 -1 -1 -1 -1 -1 -0 -0 -0
11 8 5 5 3 -3 -9 -11 -4 1 3 3 2 2 3 4 4 3 3 2 1 1 0 -0 -1 -1 -1 -0 0 1 1 1 2 2 2 1 1 -0 -1 -2 -2 -3 -3 -2 -1 -1 -0 -0 -0 -0 -0 -0 -0 -0 -0 -1 -1 -1 -1 -1 -1 -1 -1 -1 -1 -0 -0 -0 -0
1 -0 0 1 -2 -6 -7 -4 2 3 3 2 2 2 3 4 3 2 1 -0 -1 -1 -1 -1 -1 -2 -1 -1 0 1 2 2 2 2 1 1 0 -1 -1 -2 -2 -2 -2 -1 -0 -0 -0 -0 -0 -0 -0 0 0 -0 -0 -0 -0 -1 -1 -1 -1 -1 -1 -0 -0 -0 -0 0 0
-0 2 3 3 0 -0 1 4 3 2 1 0 1 2 3 3 2 0 -1 -2 -3 -3 -2 -1 -0 -0 -0 -0 0 1 2 2 2 1 1 0 -0 -1 -1 -2 -2 -2 -1 -0 0 0 0 -0 -0 -0 0 0 0 0 -0 -0 -0 -0 -1 -1 -0 -0 -0 -0 -0 -0 0 0 1
9 10 9 6 2 1 1 3 1 0 -0 -0 1 2 3 2 0 -2 -3 -3 -3 -2 -1 1 1 2 2 1 1 1 1 1 1 0 -0 -1 -1 -1 -1 -2 -1 -1 -0 0 0 -0 -0 -0 -0 0 0 0 0 -0 -0 -0 -0 -0 -0 -0 -0 -1 -1 -1 -0 0 0 1 1
10 6 2 -2 -3 -3 -2 -0 0 0 0 1 1 2 2 1 -1 -2 -3 -2 -0 1 3 3 3 3 3 2 1 1 0 0 -0 -1 -1 -1 -1 -1 -1 -1 -1 -0 0 0 -0 -0 -0 -0 0 0 0 0 -0 -0 -0 -0 -0 -0 -1 -1 -1 -1 -1 -0 0 0 1 1 1
1 -3 -6 -6 -4 -2 -1 0 0 0 1 1 1 1 0 -1 -0 -0 0 1 2 3 5 5 4 3 2 1 1 0 -1 -1 -1 -1 -1 -1 -2 -2 -1 -1 0 1 1 0 -0 -0 0 0 0 0 -0 -0 -0 -0 -0 -0 -0 -1 -1 -1 -1 -1 -0 0 1 1 0 0 0
-5 -5 -4 -1 -0 1 1 1 0 1 1 1 0 -0 -1 -0 1 2 3 4 3 4 4 4 4 2 1 0 -0 -1 -1 -2 -2 -2 -2 -2 -1 -1 -1 0 1 1 1 0 0 1 1 1 0 -0 -0 -1 -1 -1 -1 -1 -1 -1 -1 -1 -0 -0 0 1 1 0 -0 -0 -0
-3 -2 -1 1 1 1 1 0 -0 -0 -0 -0 -0 -0 1 2 2 3 4 4 4 3 3 3 3 2 2 1 -0 -1 -1 -2 -2 -2 -2 -1 -1 -0 0 1 1 1 1 1 1 1 1 1 0 -0 -0 -0 -0 -1 -1 -1 -1 -1 -0 -0 -0 0 0 0 -0 -0 -0 -1 -0
-2 -1 -1 -0 -0 0 -0 -1 -1 -1 -1 -1 0 1 2 3 3 3 3 3 3 2 1 1 1 1 1 1 0 -0 -1 -1 -1 -1 -1 -0 0 1 1 1 1 1 1 1 1 1 1 0 -0 -0 -0 -0 -0 -0 -0 -1 -0 -0 -0 0 0 0 -0 -0 -1 -1 -1 -1 -1
-2 -2 -2 -1 -1 -0 -1 -1 -2 -1 -1 1 2 3 3 3 3 2 2 1 1 1 1 0 0 0 0 0 -0 -0 -0 0 0 0 1 1 1 1 1 1 1 1 1 1 1 0 -0 -0 -1 -0 -0 -0 -0 -0 -1 -1 -0 -0 0 0 0 -0 -0 -1 -1 -1 -1 -1 -0
-3 -2 -1 -0 -0 -0 -0 -0 -0 -0 1 2 3 2 2 2 1 1 1 1 1 0 0 0 -0 -0 -1 -1 -1 -1 -0 0 1 2 2 2 1 1 1 1 1 1 0 0 -0 -0 -0 -1 -1 -1 -1 -1 -1 -1 -1 -1 -0 -0 0 0 -0 -0 -0 -1 -1 -1 -0 -0 -0
-2 -0 1 1 0 0 0 1 1 1 2 2 2 1 1 0 1 1 1 1 0 0 -0 -0 -0 -1 -1 -1 -2 -1 -1 -0 0 1 2 2 1 1 0 1 0 0 -0 -0 -0 -0 -1 -1 -1 -1 -1 -1 -1 -1 -1 -1 -1 -0 -0 -0 -0 -0 -0 -0 -0 -0 -0 -0 -0
-0 1 1 1 1 1 1 1 2 2 1 1 0 -0 -0 -0 0 1 1 1 0 -0 -1 -1 -1 -1 -2 -2 -1 -1 -1 -1 -0 0 0 1 1 0 -0 -0 -0 -0 -0 -0 -0 -0 -0 -0 -0 -1 -1 -1 -1 -1 -1 -1 -1 -0 -0 -0 -0 -0 -0 -0 -0 -0 -0 0 0
1 1 1 1 2 2 2 1 1 0 -0 -1 -1 -1 -0 0 1 1 1 1 0 -0 -1 -2 -2 -2 -2 -1 -1 -1 -0 0 -0 -0 -0 0 -0 -0 -1 -1 -1 -0 -0 -0 -0 -0 -0 -0 -0 -0 -1 -1 -1 -1 -1 -0 -0 -0 -0 -0 -1 -1 -1 -1 -0 -0 -0 0 1
2 2 2 3 3 2 1 1 -0 -1 -1 -1 -0 0 1 1 1 1 1 1 0 -0 -1 -2 -2 -2 -1 -1 -0 -0 0 1 1 1 1 0 -0 -0 -1 -1 -1 -1 -0 -0 -0 -0 -0 -0 -0 -0 -1 -1 -0 -0 -0 0 0 -0 -0 -0 -1 -1 -1 -1 -0 -0 0 1 1
3 4 4 3 2 1 -0 -1 -1 -1 -1 -0 0 1 1 1 1 1 1 0 -0 -0 -1 -1 -1 -0 -0 -0 0 1 1 1 1 1 1 0 0 0 0 0 -0 -0 -0 -0 -0 -0 -0 -0 -0 -0 -0 -0 0 1 1 0 0 -0 -0 -0 -1 -1 -0 -0 0 1 1 1 1
4 3 3 1 0 -1 -1 -1 -1 -0 0 0 1 1 1 0 0 -0 -0 -1 -1 -1 -0 -0 0 0 0 1 1 1 2 1 1 1 0 0 0 0 1 1 1 0 0 -0 -0 -0 -0 -0 0 0 0 1 1 1 1 0 0 0 0 -0 -0 0 0 1 1 1 1 1 1
2 1 0 -0 -1 -1 -1 -0 0 0 1 1 0 0 -0 -0 -1 -1 -1 -1 -1 -1 -0 -0 0 0 1 1 2 2 2 1 1 0 0 0 0 0 0 1 1 0 0 -0 -0 -0 -0 -0 0 0 1 1 1 1 1 0 0 0 0 0 1 1 1 1 1 1 1 1 1
0 -0 -0 -0 0 0 1 1 1 1 0 0 -0 -1 -1 -1 -2 -2 -2 -2 -1 -1 -1 -0 -0 1 1 2 2 2 1 1 0 0 0 0 0 0 0 0 -0 -0 -0 -0 -0 -0 -0 -0 0 0 1 1 1 0 0 0 0 0 1 1 1 1 1 1 1 1 1 1 1
0 0 1 1 2 2 2 2 1 1 0 -0 -1 -1 -2 -2 -2 -2 -2 -2 -2 -1 -1 -0 0 1 2 2 2 1 1 0 0 0 0 0 -0 -0 -0 -0 -0 -1 -1 -1 -1 -1 -1 -0 -0 -0 0 0 0 0 0 0 0 0 0 0 0 0 0 1 1 1 0 0 0
1 2 2 3 3 3 3 2 1 0 -0 -1 -2 -2 -3 -2 -2 -2 -1 -1 -1 -1 -1 -0 -0 0 0 0 -0 -0 -0 -0 -0 -0 -0 -0 -0 -1 -1 -1 -1 -1 -1 -1 -1 -1 -1 -1 -0 -0 -0 -0 -0 -0 -0 -0 0 0 -0 -0 -0 0 0 0 0 0 0 0 0
3 3 3 3 3 3 2 2 1 -0 -1 -1 -2 -2 -2 -2 -1 -1 -0 0 0 0 -0 -0 -1 -1 -1 -1 -1 -1 -1 -1 -1 -1 -1 -1 -1 -1 -1 -2 -2 -2 -1 -1 -1 -1 -1 -1 -1 -1 -1 -1 -1 -1 -1 -0 -0 -0 -0 -0 -0 0 0 0 0 0 0 0 0
4 4 4 4 3 2 1 1 0 -0 -1 -1 -1 -1 -1 -1 -0 0 1 1 1 1 0 0 -0 -0 -0 -0 -0 -0 -1 -1 -1 -1 -1 -1 -2 -2 -2 -2 -2 -2 -2 -2 -2 -2 -1 -1 -1 -1 -1 -1 -1 -1 -1 -1 -1 -0 -0 0 0 0 0 0 1 1 1 0 0
4 5 5 4 3 1 1 0 -0 -0 -0 -0 -0 0 0 0 0 0 0 0 0 1 1 1 1 0 0 -0 -0 -0 -0 -1 -1 -2 -2 -2 -2 -2 -2 -2 -2 -2 -2 -2 -2 -2 -2 -2 -2 -2 -1 -1 -1 -1 -1 -1 -0 0 0 0 0 0 0 1 1 1 0 0 -0
4 4 4 3 2 1 0 0 0 0 1 1 1 1 0 0 -0 -1 -1 -1 -0 0 1 1 1 1 0 -0 -0 -0 -1 -1 -2 -2 -2 -2 -2 -2 -2 -2 -2 -2 -2 -2 -2 -2 -1 -1 -1 -1 -1 -1 -1 -1 -0 -0 -0 0 0 0 0 0 0 1 0 0 0 -0 -0
2 2 2 2 1 1 1 1 1 1 1 1 1 0 -0 -1 -1 -1 -1 -1 -0 0 0 1 1 0 0 -0 -1 -1 -1 -1 -1 -2 -2 -2 -2 -2 -2 -2 -2 -2 -2 -2 -1 -1 -1 -1 -1 -1 -1 -1 -1 -0 -0 -0 -0 -0 -0 -0 -0 -0 0 0 0 0 0 0 -0
2 1 1 0 1 1 2 2 2 2 1 1 0 -0 -1 -1 -1 -0 -0 0 0 0 -0 -1 -1 -1 -0 -0 -1 -1 -1 -1 -1 -1 -1 -2 -2 -2 -2 -2 -2 -2 -1 -1 -1 -1 -0 -0 -0 -0 -0 -0 -0 -0 -1 -1 -1 -1 -1 -1 -1 -1 -0 0 0 0 0 0 -0
Height
2996 3000 3005 3010 3015 3018 3022 3026 3029 3032 3036 3039 3042 3045 3047 3050 3052 3055 3057 3059 3061 3062 3064 3066 3068 3070 3072 3073 3076 3077 3079 3081 3083 3085 3086 3088 3089 3090 3091 3093 3094 3095 3096 3097 3098 3100 3101 3102 3103 3104 3105 3106 3107 3108 3109 3110 3110 3111 3112 3112 3113 3113 3114 3114 3114 3114 3115 3115 3115
2997 3002 3007 3011 3015 3018 3021 3025 3028 3031 3035 3039 3043 3046 3048 3050 3053 3055 3057 3059 3061 3063 3065 3067 3069 3071 3072 3074 3076 3078 3080 3081 3083 3085 3086 3087 3089 3090 3091 3092 3093 3095 3096 3097 3098 3100 3101 3102 3103 3104 3105 3106 3107 3108 3109 3109 3110 3111 3111 3112 3113 3113 3113 3114 3114 3114 3114 3115 3115
2999 3004 3008 3011 3014 3017 3020 3024 3028 3032 3036 3040 3043 3046 3048 3051 3053 3055 3057 3059 3061 3063 3065 3067 3069 3071 3072 3074 3076 3078 3080 3081 3083 3085 3086 3087 3088 3090 3091 3092 3093 3095 3096 3097 3098 3100 3101 3102 3103 3104 3105 3106 3106 3107 3108 3109 3110 3111 3111 3112 3112 3113 3113 3113 3114 3114 3114 3114 3115
3001 3005 3008 3011 3014 3017 3021 3025 3029 3033 3037 3040 3043 3046 3048 3051 3053 3056 3057 3060 3061 3063 3065 3067 3069 3071 3073 3075 3076 3078 3080 3081 3083 3084 3086 3087 3088 3089 3091 3092 3093 3094 3096 3097 3098 3100 3101 3101 3102 3103 3105 3106 3106 3107 3108 3109 3110 3110 3111 3111 3112 3112 3113 3113 3113 3113 3114 3114 3114
3002 3005 3008 3011 3015 3018 3022 3026 3031 3034 3038 3041 3043 3046 3049 3051 3054 3056 3058 3060 3061 3063 3066 3067 3069 3071 3073 3075 3077 3078 3080 3081 3082 3084 3085 3086 3088 3089 3090 3092 3093 3094 3096 3097 3098 3099 3100 3101 3102 3103 3105 3106 3107 3107 3108 3109 3110 3110 3111 3111 3111 3112 3112 3112 3113 3113 3113 3113 3114
3003 3006 3009 3012 3015 3019 3022 3026 3031 3035 3038 3041 3044 3046 3049 3052 3054 3056 3058 3060 3062 3064 3066 3067 3069 3071 3073 3075 3077 3078 3080 3081 3082 3083 3085 3086 3087 3089 3090 3091 3093 3094 3096 3097 3098 3099 3100 3101 3102 3103 3105 3106 3107 3107 3108 3109 3109 3110 3111 3111 3111 3111 3112 3112 3112 3112 3113 3113 3113
3003 3006 3009 3013 3016 3019 3023 3027 3032 3036 3039 3041 3044 3047 3050 3052 3055 3056 3058 3060 3062 3064 3066 3067 3069 3071 3073 3075 3076 3078 3079 3081 3082 3083 3085 3086 3087 3089 3090 3091 3093 3094 3096 3097 3098 3099 3100 3101 3102 3104 3105 3106 3106 3107 3108 3108 3109 3110 3110 3110 3111 3111 3111 3111 3112 3112 3112 3112 3112
3004 3007 3011 3013 3016 3020 3024 3029 3033 3036 3039 3041 3045 3048 3051 3053 3055 3056 3058 3060 3062 3064 3066 3067 3070 3071 3073 3075 3076 3077 3079 3080 3081 3083 3085 3086 3087 3089 3090 3091 3093 3094 3095 3096 3098 3099 3100 3101 3103 3104 3105 3106 3106 3107 3107 3108 3109 3109 3110 3110 3110 3111 3111 3111 3111 3111 3111 3112 3112
3006 3009 3011 3014 3018 3022 3027 3031 3034 3036 3039 3042 3045 3048 3051 3053 3055 3056 3058 3060 3062 3064 3066 3068 3070 3071 3073 3075 3076 3077 3079 3080 3082 3083 3085 3086 3087 3089 3090 3091 3093 3094 3095 3096 3098 3099 3100 3101 3103 3104 3105 3105 3106 3106 3107 3108 3108 3109 3109 3110 3110 3110 3110 3111 3111 3111 3111 3111 3111
3007 3010 3012 3016 3020 3024 3027 3031 3034 3037 3039 3041 3044 3047 3051 3052 3054 3056 3058 3060 3062 3064 3066 3068 3070 3071 3073 3074 3076 3077 3079 3081 3082 3084 3085 3086 3087 3089 3090 3092 3093 3094 3095 3096 3098 3099 3100 3101 3102 3103 3104 3105 3106 3106 3107 3107 3108 3108 3109 3109 3109 3110 3110 3110 3110 3110 3111 3111 3111
3009 3011 3015 3018 3021 3025 3028 3031 3034 3036 3037 3040 3043 3047 3050 3051 3054 3056 3058 3060 3062 3064 3066 3068 3070 3071 3072 3074 3076 3077 3079 3081 3082 3084 3085 3086 3088 3089 3091 3092 3093 3094 3095 3096 3098 3099 3100 3101 3102 3103 3104 3105 3105 3106 3106 3107 3107 3108 3108 3108 3109 3109 3109 3109 3110 3110 3110 3110 3110
3010 3013 3016 3019 3022 3026 3028 3031 3033 3035 3037 3040 3044 3047 3049 3051 3053 3056 3058 3060 3062 3064 3066 3068 3070 3071 3073 3074 3076 3078 3079 3081 3082 3084 3085 3086 3088 3089 3091 3092 3093 3094 3095 3096 3098 3099 3100 3101 3102 3102 3103 3104 3105 3105 3106 3106 3107 3107 3107 3108 3108 3108 3108 3109 3109 3109 3109 3110 3110
3011 3014 3016 3019 3022 3025 3028 3031 3033 3035 3038 3042 3045 3047 3049 3051 3054 3056 3058 3061 3062 3064 3066 3068 3069 3071 3073 3074 3076 3078 3079 3081 3082 3084 3085 3087 3088 3089 3091 3092 3093 3094 3095 3096 3097 3099 3100 3101 3101 3102 3103 3104 3104 3105 3105 3106 3106 3106 3107 3107 3107 3107 3108 3108 3108 3108 3109 3109 3109
3012 3014 3016 3019 3022 3025 3028 3031 3034 3037 3040 3043 3045 3047 3049 3051 3054 3056 3058 3061 3062 3064 3066 3067 3069 3071 3073 3075 3076 3078 3079 3081 3082 3084 3086 3087 3088 3089 3091 3091 3093 3094 3095 3096 3097 3099 3100 3101 3101 3102 3103 3103 3104 3104 3105 3105 3106 3106 3106 3106 3106 3107 3107 3107 3107 3108 3108 3108 3109
3012 3015 3017 3020 3023 3026 3029 3033 3036 3039 3041 3043 3045 3047 3049 3051 3054 3056 3058 3060 3062 3064 3065 3067 3069 3071 3072 3075 3076 3078 3080 3081 3083 3084 3086 3087 3088 3089 3091 3091 3093 3094 3095 3096 3097 3099 3100 3101 3101 3102 3102 3103 3103 3104 3104 3105 3105 3105 3105 3106 3106 3106 3106 3106 3107 3107 3107 3108 3108
3013 3016 3019 3022 3025 3028 3031 3035 3037 3039 3041 3042 3045 3047 3049 3052 3054 3056 3058 3060 3061 3063 3065 3067 3069 3071 3072 3074 3076 3078 3080 3081 3083 3085 3086 3087 3088 3089 3091 3092 3093 3094 3096 3097 3098 3099 3100 3101 3101 3102 3102 3102 3103 3103 3104 3104 3104 3105 3105 3105 3105 3106 3106 3106 3106 3107 3107 3107 3108
3014 3018 3021 3024 3027 3030 3033 3036 3038 3040 3041 3042 3045 3047 3050 3052 3054 3056 3058 3060 3061 3063 3065 3067 3069 3071 3073 3074 3076 3078 3080 3082 3083 3085 3086 3087 3088 3089 3091 3092 3093 3095 3096 3097 3098 3099 3100 3100 3101 3101 3102 3102 3102 3103 3103 3103 3104 3104 3104 3105 3105 3105 3105 3106 3106 3106 3107 3107 3107
3016 3019 3022 3026 3029 3031 3033 3036 3038 3039 3041 3043 3045 3048 3050 3052 3054 3056 3057 3059 3061 3063 3065 3067 3070 3071 3073 3075 3076 3078 3080 3082 3083 3084 3086 3087 3088 3090 3091 3092 3094 3095 3096 3097 3098 3099 3100 3100 3101 3101 3101 3101 3102 3102 3103 3103 3103 3104 3104 3104 3104 3105 3105 3105 3106 3106 3106 3107 3107
3019 3022 3024 3027 3030 3031 3033 3035 3037 3039 3041 3044 3046 3048 3051 3052 3054 3056 3057 3059 3061 3064 3066 3068 3070 3072 3074 3075 3077 3079 3080 3081 3083 3084 3085 3087 3088 3090 3091 3092 3094 3095 3096 3097 3098 3098 3099 3099 3100 3100 3101 3101 3101 3102 3102 3102 3103 3103 3103 3104 3104 3104 3105 3105 3105 3106 3106 3106 3107
3021 3024 3026 3028 3029 3031 3033 3035 3037 3039 3042 3044 3047 3049 3051 3053 3054 3056 3058 3060 3062 3065 3067 3069 3071 3072 3074 3076 3077 3079 3080 3081 3083 3084 3086 3087 3088 3090 3091 3093 3094 3095 3096 3096 3097 3098 3098 3099 3099 3100 3100 3101 3101 3101 3102 3102 3102 3103 3103 3103 3104 3104 3104 3105 3105 3105 3106 3106 3106
3022 3024 3026 3028 3030 3031 3033 3035 3038 3040 3043 3045 3047 3049 3051 3053 3055 3057 3059 3061 3064 3066 3068 3070 3071 3073 3074 3076 3077 3078 3080 3081 3083 3084 3086 3087 3089 3090 3091 3093 3094 3095 3095 3096 3097 3097 3098 3098 3099 3099 3100 3100 3100 3101 3101 3101 3102 3102 3103 3103 3103 3104 3104 3104 3105 3105 3105 3106 3106
3022 3024 3026 3028 3030 3032 3034 3036 3039 3041 3043 3045 3047 3049 3051 3053 3056 3058 3061 3063 3065 3066 3068 3070 3071 3073 3075 3076 3077 3079 3080 3081 3083 3085 3086 3088 3089 3090 3091 3092 3093 3094 3095 3096 3096 3096 3097 3097 3098 3098 3099 3099 3100 3100 3101 3101 3101 3102 3102 3103 3103 3103 3104 3104 3104 3105 3105 3105 3106
3023 3025 3027 3029 3031 3033 3035 3037 3040 3041 3044 3046 3048 3050 3052 3055 3057 3059 3061 3063 3065 3066 3068 3070 3071 3073 3075 3076 3078 3079 3081 3082 3084 3085 3087 3088 3089 3091 3091 3092 3093 3094 3095 3095 3096 3096 3096 3097 3097 3098 3098 3099 3099 3100 3100 3101 3101 3101 3102 3102 3103 3103 3103 3104 3104 3104 3105 3105 3105
3024 3026 3028 3030 3032 3034 3036 3038 3040 3042 3044 3046 3048 3051 3053 3056 3058 3060 3061 3063 3065 3066 3068 3070 3071 3073 3075 3076 3078 3080 3081 3083 3085 3086 3087 3088 3090 3091 3091 3092 3093 3093 3094 3094 3095 3096 3096 3096 3097 3097 3098 3098 3099 3099 3100 3100 3101 3101 3102 3102 3102 3103 3103 3103 3104 3104 3104 3105 3105
3026 3028 3030 3031 3033 3035 3037 3039 3041 3043 3045 3047 3050 3052 3054 3056 3058 3060 3062 3063 3065 3067 3068 3070 3072 3073 3075 3077 3079 3080 3082 3083 3085 3086 3087 3088 3089 3090 3091 3092 3092 3093 3093 3094 3094 3095 3096 3096 3096 3097 3097 3098 3098 3099 3099 3100 3100 3101 3101 3102 3102 3102 3103 3103 3103 3104 3104 3104 3105
3027 3029 3031 3032 3034 3036 3038 3040 3042 3044 3046 3048 3051 3053 3055 3057 3059 3061 3062 3064 3066 3067 3069 3071 3072 3074 3076 3077 3079 3080 3082 3083 3085 3086 3087 3088 3089 3090 3091 3091 3092 3092 3093 3093 3094 3095 3095 3096 3096 3096 3097 3097 3098 3099 3099 3100 3100 3101 3101 3101 3102 3102 3102 3103 3103 3103 3104 3104 3104
3028 3030 3032 3034 3035 3037 3039 3041 3043 3045 3047 3049 3051 3053 3055 3057 3059 3061 3062 3064 3066 3067 3069 3071 3072 3074 3076 3077 3079 3081 3082 3083 3085 3086 3087 3088 3089 3089 3090 3091 3091 3092 3092 3093 3094 3094 3095 3096 3096 3096 3097 3097 3098 3098 3099 3099 3100 3100 3101 3101 3101 3101 3102 3102 3103 3103 3103 3104 3104
3030 3031 3033 3035 3036 3038 3040 3042 3044 3046 3048 3050 3052 3054 3056 3058 3060 3061 3063 3065 3066 3068 3069 3071 3073 3075 3076 3078 3079 3081 3082 3084 3085 3086 3086 3087 3088 3089 3090 3090 3091 3091 3092 3093 3093 3094 3095 3095 3096 3096 3097 3097 3098 3098 3099 3099 3100 3100 3100 3101 3101 3101 3101 3102 3102 3103 3103 3103 3103
3031 3033 3034 3036 3038 3040 3042 3043 3045 3047 3049 3051 3053 3055 3057 3058 3060 3062 3063 3065 3066 3068 3070 3071 3073 3075 3076 3078 3080 3081 3082 3084 3085 3086 3086 3087 3088 3088 3089 3090 3091 3091 3092 3092 3093 3094 3095 3095 3096 3096 3097 3097 3098 3098 3099 3099 3099 3100 3100 3100 3101 3101 3101 3102 3102 3102 3102 3103 3103
3032 3034 3036 3038 3040 3041 3043 3045 3046 3048 3050 3052 3054 3056 3057 3059 3061 3062 3064 3066 3067 3069 3071 3072 3074 3076 3077 3079 3080 3081 3082 3083 3084 3085 3086 3087 3087 3088 3089 3090 3091 3091 3092 3092 3093 3094 3095 3095 3096 3096 3097 3097 3097 3098 3098 3099 3099 3099 3100 3100 3101 3101 3101 3101 3101 3102 3102 3102 3103
3034 3036 3037 3039 3041 3042 3044 3046 3047 3049 3051 3053 3055 3056 3058 3059 3061 3063 3064 3066 3068 3070 3071 3073 3075 3076 3077 3079 3080 3081 3082 3083 3084 3085 3086 3086 3087 3088 3089 3090 3091 3091 3092 3092 3093 3094 3094 3095 3096 3096 3096 3097 3097 3098 3098 3098 3099 3099 3100 3100 3100 3101 3101 3101 3101 3101 3102 3102 3102
3036 3037 3039 3040 3042 3043 3045 3047 3049 3050 3052 3054 3055 3057 3058 3060 3061 3063 3065 3067 3069 3070 3072 3073 3075 3076 3077 3079 3080 3081 3082 3083 3084 3085 3086 3086 3087 3088 3089 3090 3090 3091 3091 3092 3093 3093 3094 3095 3095 3096 3096 3097 3097 3097 3098 3098 3098 3099 3099 3100 3100 3100 3101 3101 3101 3101 3101 3102 3102
3037 3038 3040 3041 3043 3045 3046 3048 3049 3051 3053 3054 3056 3057 3059 3061 3062 3064 3066 3067 3069 3071 3072 3073 3075 3076 3077 3079 3080 3081 3082 3083 3084 3085 3086 3086 3087 3088 3089 3089 3090 3091 3091 3092 3092 3093 3094 3094 3095 3095 3096 3096 3096 3097 3097 3097 3098 3098 3099 3099 3100 3100 3100 3101 3101 3101 3101 3101 3101
3038 3039 3041 3042 3044 3046 3047 3048 3050 3051 3053 3055 3056 3058 3060 3061 3063 3065 3066 3068 3069 3071 3072 3074 3075 3076 3077 3078 3080 3081 3081 3083 3084 3085 3086 3086 3087 3088 3088 3089 3090 3090 3091 3091 3092 3093 3093 3094 3094 3095 3095 3096 3096 3096 3096 3097 3097 3098 3098 3099 3099 3099 3100 3100 3100 3101 3101 3101 3101
3039 3041 3042 3043 3045 3046 3048 3049 3050 3052 3053 3055 3057 3059 3061 3062 3064 3065 3067 3068 3070 3071 3072 3074 3075 3076 3077 3078 3079 3080 3081 3082 3083 3084 3085 3086 3087 3087 3088 3089 3090 3090 3091 3091 3092 3092 3093 3093 3094 3094 3095 3095 3095 3096 3096 3096 3097 3097 3098 3098 3099 3099 3099 3100 3100 3100 3100 3100 3101
3040 3041 3043 3044 3046 3047 3048 3049 3051 3052 3054 3056 3058 3059 3061 3063 3064 3066 3067 3069 3070 3071 3072 3074 3075 3076 3077 3078 3079 3080 3081 3082 3083 3084 3085 3086 3086 3087 3088 3088 3089 3090 3091 3091 3091 3092 3092 3093 3093 3094 3094 3095 3095 3095 3096 3096 3096 3097 3097 3098 3098 3098 3099 3099 3099 3099 3100 3100 3100
3041 3042 3044 3045 3046 3047 3049 3050 3051 3053 3055 3057 3058 3060 3062 3063 3065 3066 3067 3069 3070 3071 3072 3074 3075 3076 3077 3078 3079 3080 3081 3082 3083 3084 3085 3086 3086 3087 3088 3088 3089 3090 3090 3091 3091 3092 3092 3092 3093 3093 3094 3094 3094 3095 3095 3096 3096 3096 3097 3097 3097 3098 3098 3098 3098 3099 3099 3099 3100
3042 3043 3045 3046 3047 3048 3050 3051 3052 3054 3056 3057 3059 3061 3062 3064 3065 3066 3068 3069 3070 3071 3072 3073 3075 3076 3077 3078 3079 3080 3081 3082 3083 3084 3085 3086 3086 3087 3088 3088 3089 3090 3090 3091 3091 3091 3092 3092 3092 3093 3093 3093 3094 3094 3094 3095 3095 3096 3096 3096 3096 3097 3097 3097 3098 3098 3099 3099 3099
3043 3044 3046 3047 3048 3049 3051 3052 3054 3055 3057 3058 3060 3061 3062 3064 3065 3066 3067 3069 3070 3071 3072 3073 3075 3076 3077 3078 3079 3080 3081 3082 3083 3084 3085 3086 3086 3087 3088 3088 3089 3090 3090 3090 3091 3091 3091 3091 3092 3092 3092 3092 3093 3093 3093 3094 3094 3095 3095 3095 3096 3096 3096 3097 3097 3098 3098 3098 3099
3044 3045 3046 3048 3049 3051 3052 3053 3055 3056 3057 3059 3060 3061 3063 3064 3065 3066 3067 3069 3070 3071 3072 3073 3075 3076 3077 3078 3079 3080 3081 3082 3083 3084 3085 3086 3087 3087 3088 3088 3089 3089 3090 3090 3090 3091 3091 3091 3091 3091 3091 3092 3092 3092 3093 3093 3093 3094 3094 3095 3095 3095 3096 3096 3097 3097 3097 3098 3098
3045 3046 3048 3049 3050 3052 3053 3054 3056 3057 3058 3059 3061 3062 3063 3064 3065 3066 3068 3069 3070 3071 3072 3073 3074 3076 3077 3078 3079 3080 3081 3082 3083 3085 3086 3086 3087 3087 3088 3088 3089 3089 3089 3090 3090 3090 3090 3090 3091 3091 3091 3091 3091 3092 3092 3092 3093 3093 3093 3094 3094 3095 3095 3096 3096 3096 3097 3097 3097